"Sample Date","Sample Time","Sensor Name","Sample Value","Units","Flow Rate","Sample Interval","Sample Volume","Laser Status","Number Channels","Micron Size 0","Counts/Channel 0","Micron Size 1","Counts/Channel 1","Micron Size 2","Counts/Channel 2","Micron Size 3","Counts/Channel 3","Micron Size 4","Counts/Channel 4","Micron Size 5","Counts/Channel 5","Micron Size 6","Counts/Channel 6","Micron Size 7","Counts/Channel 7","Micron Size 8","Counts/Channel 8","Micron Size 9","Counts/Channel 9","Micron Size 10","Counts/Channel 10","Micron Size 11","Counts/Channel 11","Micron Size 12","Counts/Channel 12","Micron Size 13","Counts/Channel 13","Micron Size 14","Counts/Channel 14","Micron Size 15","Counts/Channel 15","Micron Size 16","Counts/Channel 16","Micron Size 17","Counts/Channel 17","Micron Size 18","Counts/Channel 18","Micron Size 19","Counts/Channel 19","Micron Size 20","Counts/Channel 20","Micron Size 21","Counts/Channel 21","Micron Size 22","Counts/Channel 22","Micron Size 23","Counts/Channel 23","Micron Size 24","Counts/Channel 24","Micron Size 25","Counts/Channel 25","Micron Size 26","Counts/Channel 26","Micron Size 27","Counts/Channel 27","Micron Size 28","Counts/Channel 28","Micron Size 29","Counts/Channel 29","Micron Size 30","Counts/Channel 30","Micron Size 31","Counts/Channel 31"
"07/01/06","13:00:03","AMMA06",49335.000,"cc",28327.328,6.00,2832.733,1,6,0.100,25444.000,0.200,19084.000,0.300,3518.000,0.500,758.000,1.000,531.000,5.000,0
"07/01/06","13:00:09","AMMA06",49657.000,"cc",28332.094,6.00,2833.210,1,6,0.100,25653.000,0.200,18991.000,0.300,3729.000,0.500,741.000,1.000,543.000,5.000,0
"07/01/06","13:00:15","AMMA06",49350.000,"cc",28306.240,6.00,2830.624,1,6,0.100,25041.000,0.200,19371.000,0.300,3670.000,0.500,751.000,1.000,516.000,5.000,1.000
"07/01/06","13:00:21","AMMA06",49362.000,"cc",28274.830,6.00,2827.483,1,6,0.100,25260.000,0.200,19175.000,0.300,3611.000,0.500,755.000,1.000,561.000,5.000,0
"07/01/06","13:00:27","AMMA06",49489.000,"cc",28324.238,6.00,2832.424,1,6,0.100,25499.000,0.200,19115.000,0.300,3624.000,0.500,738.000,1.000,512.000,5.000,1.000
"07/01/06","13:00:33","AMMA06",49212.000,"cc",28351.443,6.00,2835.145,1,6,0.100,25142.000,0.200,19186.000,0.300,3599.000,0.500,736.000,1.000,548.000,5.000,1.000
"07/01/06","13:00:39","AMMA06",49754.000,"cc",28342.070,6.00,2834.207,1,6,0.100,25732.000,0.200,19099.000,0.300,3629.000,0.500,764.000,1.000,530.000,5.000,0
"07/01/06","13:00:45","AMMA06",49273.000,"cc",28277.430,6.00,2827.743,1,6,0.100,25341.000,0.200,19056.000,0.300,3607.000,0.500,734.000,1.000,535.000,5.000,0
"07/01/06","13:00:51","AMMA06",48847.000,"cc",28275.318,6.00,2827.532,1,6,0.100,24958.000,0.200,18941.000,0.300,3652.000,0.500,737.000,1.000,559.000,5.000,0
"07/01/06","13:00:57","AMMA06",49764.000,"cc",28330.975,6.00,2833.098,1,6,0.100,25513.000,0.200,19314.000,0.300,3630.000,0.500,756.000,1.000,549.000,5.000,2.000
"07/01/06","13:01:03","AMMA06",49487.000,"cc",28355.904,6.00,2835.591,1,6,0.100,25387.000,0.200,19287.000,0.300,3577.000,0.500,711.000,1.000,524.000,5.000,1.000
"07/01/06","13:01:09","AMMA06",49417.000,"cc",28315.906,6.00,2831.591,1,6,0.100,25534.000,0.200,18984.000,0.300,3621.000,0.500,736.000,1.000,541.000,5.000,1.000
"07/01/06","13:01:15","AMMA06",49917.000,"cc",28328.520,6.00,2832.852,1,6,0.100,25755.000,0.200,19222.000,0.300,3631.000,0.500,753.000,1.000,555.000,5.000,1.000
"07/01/06","13:01:21","AMMA06",49517.000,"cc",28305.756,6.00,2830.576,1,6,0.100,25432.000,0.200,19105.000,0.300,3694.000,0.500,750.000,1.000,535.000,5.000,1.000
"07/01/06","13:01:27","AMMA06",49061.000,"cc",28315.820,6.00,2831.582,1,6,0.100,25481.000,0.200,18623.000,0.300,3672.000,0.500,749.000,1.000,536.000,5.000,0
"07/01/06","13:01:33","AMMA06",49605.000,"cc",28301.666,6.00,2830.167,1,6,0.100,25650.000,0.200,19089.000,0.300,3598.000,0.500,742.000,1.000,525.000,5.000,1.000
"07/01/06","13:01:39","AMMA06",48898.000,"cc",28336.768,6.00,2833.677,1,6,0.100,25363.000,0.200,18672.000,0.300,3530.000,0.500,806.000,1.000,527.000,5.000,0
"07/01/06","13:01:45","AMMA06",49295.000,"cc",28332.445,6.00,2833.245,1,6,0.100,25572.000,0.200,18991.000,0.300,3491.000,0.500,735.000,1.000,506.000,5.000,0
"07/01/06","13:01:51","AMMA06",49153.000,"cc",28340.496,6.00,2834.050,1,6,0.100,25540.000,0.200,18821.000,0.300,3468.000,0.500,774.000,1.000,549.000,5.000,1.000
"07/01/06","13:01:57","AMMA06",49190.000,"cc",28304.346,6.00,2830.435,1,6,0.100,25382.000,0.200,18837.000,0.300,3647.000,0.500,800.000,1.000,524.000,5.000,0
"07/01/06","13:02:03","AMMA06",49338.000,"cc",28314.965,6.00,2831.497,1,6,0.100,25420.000,0.200,18991.000,0.300,3628.000,0.500,782.000,1.000,517.000,5.000,0
"07/01/06","13:02:09","AMMA06",49444.000,"cc",28318.592,6.00,2831.859,1,6,0.100,25657.000,0.200,18947.000,0.300,3544.000,0.500,752.000,1.000,544.000,5.000,0
"07/01/06","13:02:15","AMMA06",49566.000,"cc",28317.090,6.00,2831.709,1,6,0.100,25374.000,0.200,19217.000,0.300,3647.000,0.500,760.000,1.000,568.000,5.000,0
"07/01/06","13:02:21","AMMA06",49588.000,"cc",28301.873,6.00,2830.188,1,6,0.100,25531.000,0.200,19264.000,0.300,3528.000,0.500,747.000,1.000,518.000,5.000,0
"07/01/06","13:02:27","AMMA06",49610.000,"cc",28325.232,6.00,2832.523,1,6,0.100,25696.000,0.200,18945.000,0.300,3697.000,0.500,748.000,1.000,524.000,5.000,0
"07/01/06","13:02:33","AMMA06",49574.000,"cc",28305.826,6.00,2830.583,1,6,0.100,25463.000,0.200,19109.000,0.300,3688.000,0.500,766.000,1.000,547.000,5.000,1.000
"07/01/06","13:02:39","AMMA06",49752.000,"cc",28327.836,6.00,2832.784,1,6,0.100,25505.000,0.200,19271.000,0.300,3692.000,0.500,760.000,1.000,524.000,5.000,0
"07/01/06","13:02:45","AMMA06",49353.000,"cc",28297.133,6.00,2829.713,1,6,0.100,25302.000,0.200,19107.000,0.300,3660.000,0.500,731.000,1.000,552.000,5.000,1.000
"07/01/06","13:02:51","AMMA06",49991.000,"cc",28314.703,6.00,2831.471,1,6,0.100,25187.000,0.200,19642.000,0.300,3811.000,0.500,784.000,1.000,567.000,5.000,0
"07/01/06","13:02:57","AMMA06",49487.000,"cc",28335.943,6.00,2833.595,1,6,0.100,25176.000,0.200,19479.000,0.300,3571.000,0.500,764.000,1.000,497.000,5.000,0
"07/01/06","13:03:03","AMMA06",49523.000,"cc",28339.840,6.00,2833.984,1,6,0.100,25134.000,0.200,19427.000,0.300,3719.000,0.500,696.000,1.000,546.000,5.000,1.000
"07/01/06","13:03:09","AMMA06",49595.000,"cc",28343.502,6.00,2834.350,1,6,0.100,25089.000,0.200,19458.000,0.300,3751.000,0.500,733.000,1.000,564.000,5.000,0
"07/01/06","13:03:15","AMMA06",49436.000,"cc",28258.662,6.00,2825.867,1,6,0.100,24863.000,0.200,19542.000,0.300,3740.000,0.500,795.000,1.000,496.000,5.000,0
"07/01/06","13:03:21","AMMA06",49819.000,"cc",28290.418,6.00,2829.042,1,6,0.100,25279.000,0.200,19502.000,0.300,3715.000,0.500,779.000,1.000,544.000,5.000,0
"07/01/06","13:03:27","AMMA06",50080.000,"cc",28384.773,6.00,2838.478,1,6,0.100,25466.000,0.200,19534.000,0.300,3767.000,0.500,752.000,1.000,561.000,5.000,0
"07/01/06","13:03:33","AMMA06",49951.000,"cc",28342.496,6.00,2834.250,1,6,0.100,25150.000,0.200,19679.000,0.300,3780.000,0.500,794.000,1.000,547.000,5.000,1.000
"07/01/06","13:03:39","AMMA06",49908.000,"cc",28272.533,6.00,2827.253,1,6,0.100,25023.000,0.200,19752.000,0.300,3825.000,0.500,736.000,1.000,572.000,5.000,0
"07/01/06","13:03:45","AMMA06",49682.000,"cc",28306.963,6.00,2830.697,1,6,0.100,25062.000,0.200,19537.000,0.300,3725.000,0.500,797.000,1.000,560.000,5.000,1.000
"07/01/06","13:03:51","AMMA06",49804.000,"cc",28377.666,6.00,2837.767,1,6,0.100,25396.000,0.200,19392.000,0.300,3704.000,0.500,786.000,1.000,525.000,5.000,1.000
"07/01/06","13:03:57","AMMA06",49417.000,"cc",28293.053,6.00,2829.305,1,6,0.100,24950.000,0.200,19366.000,0.300,3769.000,0.500,773.000,1.000,557.000,5.000,2.000
"07/01/06","13:04:03","AMMA06",49475.000,"cc",28252.256,6.00,2825.226,1,6,0.100,24900.000,0.200,19407.000,0.300,3817.000,0.500,831.000,1.000,520.000,5.000,0
"07/01/06","13:04:09","AMMA06",50093.000,"cc",28331.211,6.00,2833.121,1,6,0.100,25485.000,0.200,19524.000,0.300,3770.000,0.500,761.000,1.000,552.000,5.000,1.000
"07/01/06","13:04:15","AMMA06",50014.000,"cc",28283.428,6.00,2828.343,1,6,0.100,25472.000,0.200,19440.000,0.300,3759.000,0.500,763.000,1.000,579.000,5.000,1.000
"07/01/06","13:04:21","AMMA06",49709.000,"cc",28320.063,6.00,2832.006,1,6,0.100,25201.000,0.200,19448.000,0.300,3692.000,0.500,780.000,1.000,588.000,5.000,0
"07/01/06","13:04:27","AMMA06",50164.000,"cc",28346.328,6.00,2834.633,1,6,0.100,25379.000,0.200,19671.000,0.300,3757.000,0.500,802.000,1.000,555.000,5.000,0
"07/01/06","13:04:33","AMMA06",49975.000,"cc",28326.190,6.00,2832.619,1,6,0.100,25314.000,0.200,19550.000,0.300,3822.000,0.500,741.000,1.000,547.000,5.000,1.000
"07/01/06","13:04:39","AMMA06",49624.000,"cc",28332.840,6.00,2833.284,1,6,0.100,25234.000,0.200,19386.000,0.300,3724.000,0.500,734.000,1.000,545.000,5.000,1.000
"07/01/06","13:04:45","AMMA06",49492.000,"cc",28339.252,6.00,2833.925,1,6,0.100,25155.000,0.200,19239.000,0.300,3810.000,0.500,710.000,1.000,578.000,5.000,0
"07/01/06","13:04:51","AMMA06",49795.000,"cc",28309.203,6.00,2830.920,1,6,0.100,25346.000,0.200,19460.000,0.300,3710.000,0.500,749.000,1.000,529.000,5.000,1.000
"07/01/06","13:04:57","AMMA06",50130.000,"cc",28380.619,6.00,2838.062,1,6,0.100,25430.000,0.200,19547.000,0.300,3822.000,0.500,776.000,1.000,555.000,5.000,0
"07/01/06","13:05:03","AMMA06",49852.000,"cc",28344.022,6.00,2834.402,1,6,0.100,25426.000,0.200,19394.000,0.300,3764.000,0.500,759.000,1.000,508.000,5.000,1.000
"07/01/06","13:05:09","AMMA06",49766.000,"cc",28294.844,6.00,2829.485,1,6,0.100,25292.000,0.200,19476.000,0.300,3727.000,0.500,758.000,1.000,513.000,5.000,0
"07/01/06","13:05:15","AMMA06",49891.000,"cc",28270.268,6.00,2827.027,1,6,0.100,25563.000,0.200,19201.000,0.300,3820.000,0.500,740.000,1.000,567.000,5.000,0
"07/01/06","13:05:21","AMMA06",49911.000,"cc",28296.199,6.00,2829.620,1,6,0.100,25647.000,0.200,19287.000,0.300,3668.000,0.500,757.000,1.000,552.000,5.000,0
"07/01/06","13:05:27","AMMA06",49655.000,"cc",28281.619,6.00,2828.162,1,6,0.100,25407.000,0.200,19291.000,0.300,3615.000,0.500,797.000,1.000,545.000,5.000,0
"07/01/06","13:05:33","AMMA06",49396.000,"cc",28306.443,6.00,2830.645,1,6,0.100,25359.000,0.200,18995.000,0.300,3724.000,0.500,750.000,1.000,567.000,5.000,1.000
"07/01/06","13:05:39","AMMA06",49914.000,"cc",28340.131,6.00,2834.013,1,6,0.100,25420.000,0.200,19436.000,0.300,3742.000,0.500,774.000,1.000,541.000,5.000,1.000
"07/01/06","13:05:45","AMMA06",49637.000,"cc",28280.258,6.00,2828.026,1,6,0.100,25444.000,0.200,19126.000,0.300,3753.000,0.500,748.000,1.000,565.000,5.000,1.000
"07/01/06","13:05:51","AMMA06",49578.000,"cc",28344.721,6.00,2834.472,1,6,0.100,25399.000,0.200,19196.000,0.300,3709.000,0.500,723.000,1.000,549.000,5.000,2.000
"07/01/06","13:05:57","AMMA06",49399.000,"cc",28292.732,6.00,2829.273,1,6,0.100,25334.000,0.200,19144.000,0.300,3640.000,0.500,787.000,1.000,494.000,5.000,0
"07/01/06","13:06:03","AMMA06",49712.000,"cc",28267.213,6.00,2826.721,1,6,0.100,25420.000,0.200,19293.000,0.300,3697.000,0.500,731.000,1.000,571.000,5.000,0
"07/01/06","13:06:09","AMMA06",49634.000,"cc",28361.127,6.00,2836.113,1,6,0.100,25504.000,0.200,19108.000,0.300,3717.000,0.500,736.000,1.000,568.000,5.000,1.000
"07/01/06","13:06:15","AMMA06",49491.000,"cc",28346.041,6.00,2834.604,1,6,0.100,25632.000,0.200,18862.000,0.300,3730.000,0.500,738.000,1.000,528.000,5.000,1.000
"07/01/06","13:06:21","AMMA06",49336.000,"cc",28352.539,6.00,2835.254,1,6,0.100,25531.000,0.200,18884.000,0.300,3601.000,0.500,780.000,1.000,540.000,5.000,0
"07/01/06","13:06:27","AMMA06",49565.000,"cc",28303.678,6.00,2830.368,1,6,0.100,25604.000,0.200,19023.000,0.300,3657.000,0.500,784.000,1.000,497.000,5.000,0
"07/01/06","13:06:33","AMMA06",49644.000,"cc",28319.059,6.00,2831.906,1,6,0.100,25902.000,0.200,18885.000,0.300,3557.000,0.500,811.000,1.000,488.000,5.000,1.000
"07/01/06","13:06:39","AMMA06",49649.000,"cc",28299.842,6.00,2829.984,1,6,0.100,26008.000,0.200,18830.000,0.300,3515.000,0.500,802.000,1.000,494.000,5.000,0
"07/01/06","13:06:45","AMMA06",49861.000,"cc",28330.113,6.00,2833.012,1,6,0.100,26235.000,0.200,18652.000,0.300,3711.000,0.500,737.000,1.000,526.000,5.000,0
"07/01/06","13:06:51","AMMA06",49567.000,"cc",28281.930,6.00,2828.193,1,6,0.100,25978.000,0.200,18794.000,0.300,3567.000,0.500,714.000,1.000,513.000,5.000,1.000
"07/01/06","13:06:57","AMMA06",49521.000,"cc",28315.623,6.00,2831.563,1,6,0.100,25939.000,0.200,18874.000,0.300,3450.000,0.500,760.000,1.000,497.000,5.000,1.000
"07/01/06","13:07:03","AMMA06",49625.000,"cc",28350.928,6.00,2835.093,1,6,0.100,25877.000,0.200,18800.000,0.300,3598.000,0.500,814.000,1.000,534.000,5.000,2.000
"07/01/06","13:07:09","AMMA06",49442.000,"cc",28308.199,6.00,2830.820,1,6,0.100,25751.000,0.200,18869.000,0.300,3506.000,0.500,746.000,1.000,568.000,5.000,2.000
"07/01/06","13:07:15","AMMA06",49211.000,"cc",28348.981,6.00,2834.898,1,6,0.100,25596.000,0.200,18799.000,0.300,3551.000,0.500,772.000,1.000,492.000,5.000,1.000
"07/01/06","13:07:21","AMMA06",49578.000,"cc",28323.148,6.00,2832.315,1,6,0.100,25931.000,0.200,18927.000,0.300,3416.000,0.500,801.000,1.000,502.000,5.000,1.000
"07/01/06","13:07:27","AMMA06",49287.000,"cc",28293.141,6.00,2829.314,1,6,0.100,25843.000,0.200,18667.000,0.300,3460.000,0.500,795.000,1.000,522.000,5.000,0
"07/01/06","13:07:33","AMMA06",49985.000,"cc",28330.184,6.00,2833.019,1,6,0.100,25883.000,0.200,19233.000,0.300,3601.000,0.500,746.000,1.000,522.000,5.000,0
"07/01/06","13:07:39","AMMA06",49641.000,"cc",28309.389,6.00,2830.939,1,6,0.100,25991.000,0.200,18864.000,0.300,3437.000,0.500,782.000,1.000,565.000,5.000,2.000
"07/01/06","13:07:45","AMMA06",49269.000,"cc",28312.592,6.00,2831.259,1,6,0.100,25597.000,0.200,18891.000,0.300,3467.000,0.500,776.000,1.000,537.000,5.000,1.000
"07/01/06","13:07:51","AMMA06",49271.000,"cc",28333.924,6.00,2833.393,1,6,0.100,25862.000,0.200,18593.000,0.300,3500.000,0.500,773.000,1.000,543.000,5.000,0
"07/01/06","13:07:57","AMMA06",49394.000,"cc",28292.904,6.00,2829.291,1,6,0.100,25646.000,0.200,18895.000,0.300,3605.000,0.500,736.000,1.000,510.000,5.000,2.000
"07/01/06","13:08:03","AMMA06",49620.000,"cc",28301.180,6.00,2830.118,1,6,0.100,25723.000,0.200,19069.000,0.300,3497.000,0.500,782.000,1.000,548.000,5.000,1.000
"07/01/06","13:08:09","AMMA06",49819.000,"cc",28343.670,6.00,2834.367,1,6,0.100,25931.000,0.200,19077.000,0.300,3492.000,0.500,766.000,1.000,552.000,5.000,1.000
"07/01/06","13:08:15","AMMA06",49514.000,"cc",28320.795,6.00,2832.080,1,6,0.100,25816.000,0.200,18905.000,0.300,3536.000,0.500,770.000,1.000,486.000,5.000,1.000
"07/01/06","13:08:21","AMMA06",49587.000,"cc",28339.695,6.00,2833.970,1,6,0.100,25941.000,0.200,18883.000,0.300,3474.000,0.500,743.000,1.000,546.000,5.000,0
"07/01/06","13:08:27","AMMA06",49374.000,"cc",28302.617,6.00,2830.262,1,6,0.100,25569.000,0.200,18969.000,0.300,3550.000,0.500,740.000,1.000,546.000,5.000,0
"07/01/06","13:08:33","AMMA06",49410.000,"cc",28289.971,6.00,2828.997,1,6,0.100,25699.000,0.200,18870.000,0.300,3516.000,0.500,784.000,1.000,540.000,5.000,1.000
"07/01/06","13:08:39","AMMA06",49057.000,"cc",28356.928,6.00,2835.693,1,6,0.100,25643.000,0.200,18681.000,0.300,3499.000,0.500,712.000,1.000,520.000,5.000,2.000
"07/01/06","13:08:45","AMMA06",49883.000,"cc",28364.027,6.00,2836.403,1,6,0.100,25981.000,0.200,18996.000,0.300,3585.000,0.500,766.000,1.000,554.000,5.000,1.000
"07/01/06","13:08:51","AMMA06",49466.000,"cc",28315.098,6.00,2831.510,1,6,0.100,25744.000,0.200,18866.000,0.300,3558.000,0.500,756.000,1.000,541.000,5.000,1.000
"07/01/06","13:08:57","AMMA06",49669.000,"cc",28298.990,6.00,2829.899,1,6,0.100,25751.000,0.200,19015.000,0.300,3560.000,0.500,793.000,1.000,549.000,5.000,1.000
"07/01/06","13:09:03","AMMA06",49609.000,"cc",28336.410,6.00,2833.641,1,6,0.100,25815.000,0.200,18909.000,0.300,3536.000,0.500,808.000,1.000,539.000,5.000,2.000
"07/01/06","13:09:09","AMMA06",50064.000,"cc",28274.596,6.00,2827.460,1,6,0.100,26033.000,0.200,19199.000,0.300,3524.000,0.500,792.000,1.000,516.000,5.000,0
"07/01/06","13:09:15","AMMA06",49628.000,"cc",28355.416,6.00,2835.542,1,6,0.100,25734.000,0.200,19049.000,0.300,3524.000,0.500,756.000,1.000,563.000,5.000,2.000
"07/01/06","13:09:21","AMMA06",50107.000,"cc",28299.106,6.00,2829.911,1,6,0.100,26092.000,0.200,19212.000,0.300,3485.000,0.500,786.000,1.000,532.000,5.000,0
"07/01/06","13:09:27","AMMA06",49920.000,"cc",28310.805,6.00,2831.081,1,6,0.100,26052.000,0.200,19078.000,0.300,3487.000,0.500,777.000,1.000,525.000,5.000,1.000
"07/01/06","13:09:33","AMMA06",49747.000,"cc",28331.922,6.00,2833.192,1,6,0.100,25892.000,0.200,19074.000,0.300,3531.000,0.500,772.000,1.000,477.000,5.000,1.000
"07/01/06","13:09:39","AMMA06",49905.000,"cc",28281.961,6.00,2828.196,1,6,0.100,25834.000,0.200,19160.000,0.300,3620.000,0.500,760.000,1.000,530.000,5.000,1.000
"07/01/06","13:09:45","AMMA06",49878.000,"cc",28295.029,6.00,2829.503,1,6,0.100,25673.000,0.200,19273.000,0.300,3585.000,0.500,826.000,1.000,519.000,5.000,2.000
"07/01/06","13:09:51","AMMA06",49964.000,"cc",28364.725,6.00,2836.473,1,6,0.100,25981.000,0.200,19172.000,0.300,3485.000,0.500,753.000,1.000,572.000,5.000,1.000
"07/01/06","13:09:57","AMMA06",50541.000,"cc",28285.445,6.00,2828.545,1,6,0.100,26361.000,0.200,19240.000,0.300,3646.000,0.500,721.000,1.000,573.000,5.000,0
"07/01/06","13:10:03","AMMA06",50710.000,"cc",28311.293,6.00,2831.129,1,6,0.100,26413.000,0.200,19450.000,0.300,3509.000,0.500,746.000,1.000,592.000,5.000,0
"07/01/06","13:10:09","AMMA06",50521.000,"cc",28342.596,6.00,2834.260,1,6,0.100,26227.000,0.200,19439.000,0.300,3595.000,0.500,741.000,1.000,517.000,5.000,2.000
"07/01/06","13:10:15","AMMA06",50291.000,"cc",28335.225,6.00,2833.523,1,6,0.100,26209.000,0.200,19291.000,0.300,3474.000,0.500,785.000,1.000,532.000,5.000,0
"07/01/06","13:10:21","AMMA06",50692.000,"cc",28297.830,6.00,2829.783,1,6,0.100,26289.000,0.200,19579.000,0.300,3480.000,0.500,825.000,1.000,517.000,5.000,2.000
"07/01/06","13:10:27","AMMA06",50457.000,"cc",28294.522,6.00,2829.452,1,6,0.100,26255.000,0.200,19317.000,0.300,3583.000,0.500,782.000,1.000,520.000,5.000,0
"07/01/06","13:10:33","AMMA06",50514.000,"cc",28360.078,6.00,2836.008,1,6,0.100,26223.000,0.200,19411.000,0.300,3530.000,0.500,757.000,1.000,591.000,5.000,2.000
"07/01/06","13:10:39","AMMA06",50670.000,"cc",28367.094,6.00,2836.710,1,6,0.100,26423.000,0.200,19403.000,0.300,3522.000,0.500,763.000,1.000,558.000,5.000,1.000
"07/01/06","13:10:45","AMMA06",50794.000,"cc",28308.883,6.00,2830.888,1,6,0.100,26150.000,0.200,19659.000,0.300,3635.000,0.500,773.000,1.000,576.000,5.000,1.000
"07/01/06","13:10:51","AMMA06",50241.000,"cc",28286.635,6.00,2828.664,1,6,0.100,26111.000,0.200,19268.000,0.300,3569.000,0.500,732.000,1.000,561.000,5.000,0
"07/01/06","13:10:57","AMMA06",50993.000,"cc",28284.004,6.00,2828.401,1,6,0.100,26377.000,0.200,19733.000,0.300,3589.000,0.500,759.000,1.000,533.000,5.000,2.000
"07/01/06","13:11:03","AMMA06",50739.000,"cc",28318.934,6.00,2831.894,1,6,0.100,26345.000,0.200,19421.000,0.300,3625.000,0.500,774.000,1.000,574.000,5.000,0
"07/01/06","13:11:09","AMMA06",51173.000,"cc",28336.963,6.00,2833.697,1,6,0.100,26475.000,0.200,19645.000,0.300,3751.000,0.500,805.000,1.000,497.000,5.000,0
"07/01/06","13:11:15","AMMA06",51115.000,"cc",28312.549,6.00,2831.255,1,6,0.100,26548.000,0.200,19617.000,0.300,3650.000,0.500,773.000,1.000,527.000,5.000,0
"07/01/06","13:11:21","AMMA06",50995.000,"cc",28350.162,6.00,2835.016,1,6,0.100,26370.000,0.200,19628.000,0.300,3633.000,0.500,798.000,1.000,566.000,5.000,0
"07/01/06","13:11:27","AMMA06",51232.000,"cc",28315.596,6.00,2831.560,1,6,0.100,26539.000,0.200,19769.000,0.300,3604.000,0.500,777.000,1.000,543.000,5.000,0
"07/01/06","13:11:33","AMMA06",50877.000,"cc",28296.475,6.00,2829.648,1,6,0.100,26181.000,0.200,19581.000,0.300,3761.000,0.500,783.000,1.000,569.000,5.000,2.000
"07/01/06","13:11:39","AMMA06",51187.000,"cc",28316.016,6.00,2831.602,1,6,0.100,26384.000,0.200,19737.000,0.300,3694.000,0.500,769.000,1.000,603.000,5.000,0
"07/01/06","13:11:45","AMMA06",51046.000,"cc",28312.330,6.00,2831.233,1,6,0.100,26261.000,0.200,19701.000,0.300,3727.000,0.500,802.000,1.000,553.000,5.000,2.000
"07/01/06","13:11:51","AMMA06",51031.000,"cc",28313.842,6.00,2831.384,1,6,0.100,26288.000,0.200,19768.000,0.300,3621.000,0.500,795.000,1.000,557.000,5.000,2.000
"07/01/06","13:11:57","AMMA06",51010.000,"cc",28348.170,6.00,2834.817,1,6,0.100,26047.000,0.200,19858.000,0.300,3772.000,0.500,801.000,1.000,532.000,5.000,0
"07/01/06","13:12:03","AMMA06",51230.000,"cc",28280.641,6.00,2828.064,1,6,0.100,25964.000,0.200,20100.000,0.300,3802.000,0.500,809.000,1.000,554.000,5.000,1.000
"07/01/06","13:12:09","AMMA06",51412.000,"cc",28274.969,6.00,2827.497,1,6,0.100,26247.000,0.200,20176.000,0.300,3712.000,0.500,755.000,1.000,521.000,5.000,1.000
"07/01/06","13:12:15","AMMA06",51126.000,"cc",28336.084,6.00,2833.609,1,6,0.100,26140.000,0.200,20056.000,0.300,3621.000,0.500,741.000,1.000,568.000,5.000,0
"07/01/06","13:12:21","AMMA06",51416.000,"cc",28315.281,6.00,2831.528,1,6,0.100,26285.000,0.200,19995.000,0.300,3771.000,0.500,781.000,1.000,584.000,5.000,0
"07/01/06","13:12:27","AMMA06",51276.000,"cc",28303.170,6.00,2830.317,1,6,0.100,26063.000,0.200,19981.000,0.300,3803.000,0.500,844.000,1.000,585.000,5.000,0
"07/01/06","13:12:33","AMMA06",51602.000,"cc",28340.418,6.00,2834.042,1,6,0.100,26266.000,0.200,20229.000,0.300,3757.000,0.500,791.000,1.000,556.000,5.000,3.000
"07/01/06","13:12:39","AMMA06",51473.000,"cc",28330.016,6.00,2833.002,1,6,0.100,26173.000,0.200,20134.000,0.300,3804.000,0.500,788.000,1.000,574.000,5.000,0
"07/01/06","13:12:45","AMMA06",51114.000,"cc",28363.240,6.00,2836.324,1,6,0.100,25897.000,0.200,20141.000,0.300,3753.000,0.500,785.000,1.000,538.000,5.000,0
"07/01/06","13:12:51","AMMA06",51531.000,"cc",28262.563,6.00,2826.256,1,6,0.100,26423.000,0.200,20083.000,0.300,3671.000,0.500,797.000,1.000,557.000,5.000,0
"07/01/06","13:12:57","AMMA06",51582.000,"cc",28300.633,6.00,2830.064,1,6,0.100,26115.000,0.200,20277.000,0.300,3832.000,0.500,788.000,1.000,569.000,5.000,1.000
"07/01/06","13:13:03","AMMA06",51513.000,"cc",28340.240,6.00,2834.024,1,6,0.100,25928.000,0.200,20349.000,0.300,3850.000,0.500,789.000,1.000,597.000,5.000,0
"07/01/06","13:13:09","AMMA06",51317.000,"cc",28323.650,6.00,2832.365,1,6,0.100,25856.000,0.200,20235.000,0.300,3853.000,0.500,790.000,1.000,582.000,5.000,1.000
"07/01/06","13:13:15","AMMA06",52136.000,"cc",28313.199,6.00,2831.320,1,6,0.100,26235.000,0.200,20570.000,0.300,3962.000,0.500,804.000,1.000,565.000,5.000,0
"07/01/06","13:13:21","AMMA06",51464.000,"cc",28315.826,6.00,2831.583,1,6,0.100,25773.000,0.200,20419.000,0.300,3926.000,0.500,793.000,1.000,553.000,5.000,0
"07/01/06","13:13:27","AMMA06",51841.000,"cc",28375.162,6.00,2837.516,1,6,0.100,25977.000,0.200,20648.000,0.300,3836.000,0.500,788.000,1.000,590.000,5.000,2.000
"07/01/06","13:13:33","AMMA06",51751.000,"cc",28305.887,6.00,2830.589,1,6,0.100,25828.000,0.200,20596.000,0.300,3962.000,0.500,803.000,1.000,558.000,5.000,4.000
"07/01/06","13:13:39","AMMA06",52062.000,"cc",28262.803,6.00,2826.281,1,6,0.100,25928.000,0.200,20775.000,0.300,3952.000,0.500,795.000,1.000,612.000,5.000,0
"07/01/06","13:13:45","AMMA06",51925.000,"cc",28354.438,6.00,2835.444,1,6,0.100,26094.000,0.200,20552.000,0.300,3898.000,0.500,787.000,1.000,592.000,5.000,2.000
"07/01/06","13:13:51","AMMA06",51831.000,"cc",28324.920,6.00,2832.492,1,6,0.100,25990.000,0.200,20502.000,0.300,3926.000,0.500,805.000,1.000,608.000,5.000,0
"07/01/06","13:13:57","AMMA06",52166.000,"cc",28300.834,6.00,2830.084,1,6,0.100,26384.000,0.200,20571.000,0.300,3819.000,0.500,812.000,1.000,579.000,5.000,1.000
"07/01/06","13:14:03","AMMA06",52107.000,"cc",28285.865,6.00,2828.587,1,6,0.100,26404.000,0.200,20721.000,0.300,3679.000,0.500,732.000,1.000,570.000,5.000,1.000